Powrót do katalogu

THORAD AGENA D DEB

AktywnyLEO
NORAD 4173·DEBRIS·🇺🇸 United States

Wystrzelony Sep 30, 1969 z Vandenberg Space Force Base

Loading…

Następne Przeloty (najbliższe 24 godziny)

TLE

ŚwieżeSource: Space-Track

Epoka: Sep 14, 2026, 02:42 UTC

1 04173U 69082AR  26257.11309587  .00003962  00000-0  46957-3 0  9990
2 04173  70.0654 142.1189 0023220 253.2699 106.5906 14.85125422986688

Śledź THORAD AGENA D DEB w czasie rzeczywistym z AllMySat

Download on the App Store